[[{"header":{"parameterUnit":"m.s-1","parameterCategory":1,"la1":30.2991,"la2":30.254,"lo1":-89.0895,"lo2":-89.0444,"dy":0.0017,"dx":0.0017,"nx":28,"ny":28,"refTime":"2024-05-11T21:00:00:Z","depth":0,"parameterNumber":2,"parameterNumberName":"U-component_of_WINDS"},"data":[0,0,0,0,0,0,0,0,0,0,0,0,0,0,0,0,0,0,0,0,0,0,0,0,0,0,0,0,0,0,0,0,0,0,0,0,0,0,0,0,0,0,0,0,0,0,0,0,0,0,0,0,0,0,0,0,0,0,-5.0583,-5.0582,0,-5.0527,-5.0526,-5.0526,-5.0349,-5.0345,-5.0341,-5.0338,-5.0284,-5.0286,-5.0288,0,0,0,0,0,0,0,0,0,0,0,0,0,-5.0542,-5.0543,-5.0583,-5.0582,-5.0581,-5.0527,-5.0526,-5.0525,-5.035,-5.0345,-5.034,-5.0336,-5.0283,-5.0286,-5.0288,0,0,0,0,0,0,0,0,0,0,0,0,0,-5.053,-5.0544,-5.0583,-5.0487,-5.0478,-5.0527,-5.0526,-5.0525,-5.0351,-5.0345,-5.0339,-5.0334,-5.0282,-5.0286,-5.0289,-5.0427,0,0,-5.0299,-5.03,0,0,0,0,0,0,0,0,-5.0531,-5.0532,-5.0502,-5.0494,-5.0484,-5.0439,-5.0492,-5.0493,-5.0352,-5.0399,-5.0338,-5.0331,-5.034,-5.0339,-5.0341,-5.0425,-5.0422,-5.0299,-5.0301,-5.0303,-5.0304,0,0,0,0,0,0,0,-5.0532,-5.0534,-5.0561,-5.0502,-5.0491,-5.0448,-5.044,-5.0491,-5.0404,-5.0395,-5.0382,-5.0377,-5.0334,-5.0338,-5.0339,-5.0421,-5.0299,-5.0302,-5.0304,-5.0306,-5.0618,-5.0624,0,0,0,0,0,0,-5.0546,-5.0535,-5.0562,-5.0559,-5.0493,-5.0454,-5.0445,-5.0459,-5.0403,-5.0388,-5.0383,-5.0369,-5.0336,-5.0335,-5.0336,-5.0494,-5.0303,-5.0306,-5.0308,-5.0611,-5.0619,-5.0626,0,0,0,0,0,0,-5.0546,-5.055,-5.0565,-5.0544,-5.0542,-5.0461,-5.0479,-5.0461,-5.0465,-5.0393,-5.0377,-5.0402,-5.0331,-5.0331,-5.0406,-5.049,-5.0307,-5.031,-5.0604,-5.0614,-5.0622,-5.0813,0,0,0,0,0,0,-5.0546,-5.0551,-5.0601,-5.0546,-5.0544,-5.0634,-5.0484,-5.0464,-5.0471,-5.0453,-5.0408,-5.0395,-5.0326,-5.0402,-5.0409,-5.0492,-5.0313,-5.0596,-5.0608,-5.0619,-5.0799,-5.0828,-5.0853,0,0,0,0,0,-5.0545,-5.0658,-5.0605,-5.0609,-5.0605,-5.064,-5.0638,-5.0557,-5.0478,-5.0529,-5.0484,-5.0396,-5.0481,-5.0411,-5.0418,-5.0502,-5.059,-5.0605,-5.0619,-5.0787,-5.0822,-5.0852,0,0,0,0,0,0,-5.0725,-5.0648,-5.0589,-5.0687,-5.0671,-5.061,-5.0671,-5.0597,-5.0603,-5.0587,-5.0486,-5.0478,-5.0567,-5.0542,-5.0466,-5.0634,-5.0521,-5.0537,-5.0647,-5.068,-5.0706,-5.0709,-5.0316,0,0,0,0,0,-5.0777,-5.081,-5.0741,-5.0835,-5.083,-5.0753,-5.0765,-5.0703,-5.0683,-5.0676,-5.0635,-5.062,-5.0643,-5.066,-5.0677,-5.0795,-5.0784,-5.0857,-5.0884,-5.0907,-5.0921,-5.0983,-5.1015,-5.0672,-5.0672,-5.0672,0,0,-5.0883,-5.0845,-5.0872,-5.087,-5.085,-5.0889,-5.0748,-5.0794,-5.0821,-5.0683,-5.075,-5.0721,-5.0698,-5.0795,-5.0836,-5.0777,-5.1014,-5.0925,-5.0943,-5.0945,-5.1001,-5.1034,-5.1063,-5.0682,-5.068,-5.0679,0,0,-5.1095,-5.107,-5.1145,-5.1129,-5.1101,-5.1049,-5.1068,-5.1018,-5.0993,-5.106,-5.0957,-5.099,-5.1031,-5.1019,-5.1019,-5.1231,-5.1151,-5.124,-5.138,-5.1442,-5.1468,-5.1492,-5.1568,-5.1596,-5.1255,-5.1256,-5.1256,0,-5.123,-5.1282,-5.1193,-5.1246,-5.1249,-5.1126,-5.1203,-5.1192,-5.1172,-5.1178,-5.1112,-5.1163,-5.1139,-5.1232,-5.1284,-5.1288,-5.1307,-5.1243,-5.1472,-5.1494,-5.1515,-5.1586,-5.1615,-5.1267,-5.1265,-5.1264,-5.1263,0,-5.145,-5.1488,-5.1553,-5.1536,-5.1547,-5.1612,-5.1535,-5.1557,-5.1496,-5.1452,-5.1523,-5.149,-5.1499,-5.1517,-5.1458,-5.1603,-5.1568,-5.1489,-5.1373,-5.156,-5.1625,-5.1652,-5.1282,-5.1278,-5.1275,-5.1272,0,0,-5.177,-5.1707,-5.1732,-5.1724,-5.1686,-5.1714,-5.1776,-5.1784,-5.1805,-5.1797,-5.1846,-5.1886,-5.1813,-5.1813,-5.1752,-5.1807,-5.1978,-5.1721,-5.1719,-5.1769,-5.2136,-5.2195,-5.2228,-5.1926,-5.1931,-5.1934,-5.2138,0,-5.1971,-5.2069,-5.1993,-5.2106,-5.2141,-5.2027,-5.208,-5.2064,-5.2026,-5.2051,-5.2009,-5.2039,-5.1941,-5.194,-5.1989,-5.1947,-5.205,-5.1931,-5.1971,-5.1973,-5.1978,-5.2262,-5.2323,-5.2517,-5.2163,-5.2167,-5.2171,0,-5.2217,-5.222,-5.2336,-5.2293,-5.2305,-5.2354,-5.2357,-5.2383,-5.2363,-5.2332,-5.2334,-5.2259,-5.2318,-5.2206,-5.2286,-5.2207,-5.2219,-5.2202,-5.2207,-5.2206,-5.2082,-5.2268,-5.2577,-5.2606,-5.221,-5.2207,-5.2204,0,-5.2439,-5.2473,-5.2546,-5.2543,-5.2495,-5.2532,-5.2514,-5.2489,-5.25,-5.2504,-5.251,-5.2521,-5.2527,-5.2538,-5.247,-5.2394,-5.2559,-5.2441,-5.2535,-5.2537,-5.2573,-5.2571,-5.2887,-5.2584,-5.2584,-5.2583,-5.2583,0,-5.267,-5.2746,-5.2646,-5.2691,-5.2773,-5.2687,-5.2771,-5.2741,-5.2721,-5.2759,-5.2663,-5.2702,-5.2609,-5.264,-5.2587,-5.2662,-5.2665,-5.2642,-5.2627,-5.265,-5.2653,-5.2655,-5.264,-5.2591,-5.2589,-5.2588,-5.2586,0,-5.293,-5.2866,-5.2939,-5.2889,-5.2878,-5.2941,-5.2898,-5.2939,-5.2896,-5.2947,-5.2954,-5.2887,-5.2917,-5.2851,-5.2872,-5.2837,-5.2943,-5.2907,-5.2949,-5.2938,-5.3036,-5.3027,-5.3363,-5.3402,-5.3076,-5.3079,-5.3082,0,-5.3081,-5.3136,-5.3092,-5.3111,-5.3098,-5.313,-5.3141,-5.306,-5.3076,-5.306,-5.3103,-5.3126,-5.3139,-5.3194,-5.3148,-5.3165,-5.3128,-5.3245,-5.313,-5.3152,-5.3129,-5.3126,-5.3131,-5.3268,-5.3272,-5.3275,-5.3278,0,-5.3355,-5.3321,-5.334,-5.335,-5.3366,-5.3369,-5.3366,-5.3387,-5.3301,-5.3324,-5.3354,-5.3365,-5.3388,-5.3412,-5.3419,-5.3401,-5.3326,-5.3315,-5.3337,-5.336,-5.3382,-5.3371,-5.3013,-5.3307,-5.3304,-5.3302,-5.33,-5.3299,-5.3563,-5.3608,-5.3585,-5.361,-5.36,-5.36,-5.3636,-5.3598,-5.3622,-5.3633,-5.3585,-5.3627,-5.3609,-5.3609,-5.3601,-5.3633,-5.358,-5.3613,-5.3621,-5.363,-5.3646,-5.3379,-5.3634,-5.3633,-5.3632,-5.3632,-5.3631,0,-5.3832,-5.3812,-5.3836,-5.3835,-5.3856,-5.3784,-5.3778,-5.38,-5.3838,-5.3827,-5.3843,-5.3879,-5.3903,-5.3861,-5.3878,-5.3912,-5.3878,-5.3919,-5.3915,-5.3913,-5.3692,-5.367,-5.3947,-5.3947,-5.3947,-5.3947,-5.3946,-5.3946,-5.3973,-5.4045,-5.401,-5.4077,-5.4057,-5.4096,-5.4099,-5.4099,-5.409,-5.4135,-5.4154,-5.4127,-5.4104,-5.4119,-5.4139,-5.4126,-5.4136,-5.419,-5.4165,-5.3959,-5.3928,-5.3898,-5.3877,-5.4193,-5.4193,-5.4382,-5.4384,-5.4385]},{"header":{"parameterUnit":"m.s-1","parameterCategory":1,"la1":30.2991,"la2":30.254,"lo1":-89.0895,"lo2":-89.0444,"dy":0.0017,"dx":0.0017,"nx":28,"ny":28,"refTime":"2024-05-11T21:00:00:Z","depth":0,"parameterNumber":3,"parameterNumberName":"V-component_of_WINDS"},"data":[0,0,0,0,0,0,0,0,0,0,0,0,0,0,0,0,0,0,0,0,0,0,0,0,0,0,0,0,0,0,0,0,0,0,0,0,0,0,0,0,0,0,0,0,0,0,0,0,0,0,0,0,0,0,0,0,0,0,-3.3882,-3.3883,0,-3.4004,-3.4005,-3.4007,-3.4045,-3.4045,-3.4044,-3.4043,-3.4158,-3.4162,-3.4165,0,0,0,0,0,0,0,0,0,0,0,0,0,-3.367,-3.3674,-3.3882,-3.3883,-3.3885,-3.4004,-3.4006,-3.4007,-3.4045,-3.4044,-3.4044,-3.4043,-3.4157,-3.4161,-3.4166,0,0,0,0,0,0,0,0,0,0,0,0,0,-3.3774,-3.3675,-3.3882,-3.3919,-3.3923,-3.4004,-3.4006,-3.4008,-3.4045,-3.4044,-3.4044,-3.4043,-3.4156,-3.4161,-3.4166,-3.4216,0,0,-3.4182,-3.4185,0,0,0,0,0,0,0,0,-3.3768,-3.3782,-3.3912,-3.3916,-3.3921,-3.4009,-3.3973,-3.4077,-3.4046,-3.3999,-3.4043,-3.4042,-3.4108,-3.4118,-3.4142,-3.4221,-3.4226,-3.4183,-3.4186,-3.4188,-3.419,0,0,0,0,0,0,0,-3.3761,-3.3776,-3.393,-3.3913,-3.3919,-3.3925,-3.3939,-3.3993,-3.4056,-3.4003,-3.4006,-3.402,-3.4111,-3.4137,-3.4145,-3.4228,-3.4183,-3.4188,-3.4191,-3.4193,-3.435,-3.4351,0,0,0,0,0,0,-3.3749,-3.377,-3.3926,-3.3934,-3.3841,-3.393,-3.3945,-3.3981,-3.4056,-3.4067,-3.4021,-3.4022,-3.4128,-3.4139,-3.4149,-3.4211,-3.4188,-3.4193,-3.4197,-3.4349,-3.435,-3.4351,0,0,0,0,0,0,-3.3744,-3.3762,-3.3921,-3.3853,-3.3874,-3.3934,-3.3974,-3.3984,-3.401,-3.407,-3.408,-3.4036,-3.4128,-3.4142,-3.4199,-3.4215,-3.4196,-3.4201,-3.4348,-3.4349,-3.4351,-3.4334,0,0,0,0,0,0,-3.3738,-3.3761,-3.3783,-3.3853,-3.3877,-3.3972,-3.3976,-3.3987,-3.4021,-3.4023,-3.4087,-3.4097,-3.4128,-3.4191,-3.4204,-3.4222,-3.4205,-3.4347,-3.4349,-3.435,-3.4334,-3.4335,-3.4336,0,0,0,0,0,-3.373,-3.3772,-3.3784,-3.3802,-3.3907,-3.3973,-3.3986,-3.4025,-3.4022,-3.4043,-3.408,-3.4095,-3.4211,-3.4196,-3.4212,-3.4231,-3.4346,-3.4348,-3.435,-3.4333,-3.4335,-3.4336,0,0,0,0,0,0,-3.3698,-3.3782,-3.3796,-3.3862,-3.3911,-3.398,-3.4007,-3.4026,-3.4073,-3.4073,-3.4115,-3.4129,-3.4182,-3.4213,-3.4195,-3.4282,-3.4279,-3.4284,-3.426,-3.4262,-3.4264,-3.4255,-3.4209,0,0,0,0,0,-3.3699,-3.375,-3.3819,-3.387,-3.3894,-3.3946,-3.3977,-3.4002,-3.4052,-3.4072,-3.4114,-3.416,-3.4206,-3.4236,-3.4282,-3.4338,-3.4351,-3.4359,-3.436,-3.4361,-3.4365,-3.4394,-3.4397,-3.4358,-3.4358,-3.4358,0,0,-3.3701,-3.3753,-3.3782,-3.3865,-3.3906,-3.3953,-3.3963,-3.4014,-3.4048,-3.4079,-3.4136,-3.4168,-3.4221,-3.4278,-3.4304,-3.4304,-3.4378,-3.4364,-3.4364,-3.4367,-3.4396,-3.44,-3.4403,-3.436,-3.436,-3.4359,0,0,-3.3729,-3.3774,-3.3822,-3.3863,-3.3925,-3.3959,-3.397,-3.4037,-3.406,-3.4119,-3.4142,-3.4182,-3.4262,-3.4299,-3.4328,-3.4367,-3.4381,-3.4381,-3.4387,-3.4415,-3.4418,-3.4421,-3.4433,-3.4437,-3.4384,-3.4384,-3.4384,0,-3.3722,-3.3799,-3.3843,-3.3892,-3.3926,-3.3959,-3.4005,-3.4041,-3.4114,-3.4135,-3.4135,-3.4235,-3.4273,-3.4337,-3.4347,-3.437,-3.4381,-3.4373,-3.4415,-3.4418,-3.4421,-3.4433,-3.4438,-3.4384,-3.4384,-3.4384,-3.4384,0,-3.3787,-3.3839,-3.3869,-3.3942,-3.3979,-3.4026,-3.4073,-3.4105,-3.4127,-3.416,-3.4217,-3.4264,-3.432,-3.4337,-3.4357,-3.4403,-3.4401,-3.4407,-3.4405,-3.4424,-3.4436,-3.4441,-3.4383,-3.4383,-3.4383,-3.4383,0,0,-3.3798,-3.3895,-3.3904,-3.3937,-3.4008,-3.4047,-3.4093,-3.4151,-3.4177,-3.4225,-3.4263,-3.433,-3.4335,-3.4368,-3.4392,-3.4417,-3.4443,-3.442,-3.4422,-3.4421,-3.4494,-3.4488,-3.4493,-3.4453,-3.4454,-3.4455,-3.4489,0,-3.3833,-3.3923,-3.3963,-3.4033,-3.408,-3.4111,-3.4151,-3.4196,-3.4228,-3.4269,-3.4302,-3.4349,-3.4354,-3.4373,-3.4399,-3.4434,-3.4458,-3.4433,-3.4485,-3.4487,-3.4471,-3.45,-3.4494,-3.4524,-3.4494,-3.4495,-3.4495,0,-3.3888,-3.3939,-3.4015,-3.4079,-3.41,-3.4136,-3.419,-3.4231,-3.4281,-3.4302,-3.4339,-3.4362,-3.4408,-3.4403,-3.4465,-3.4447,-3.4471,-3.4491,-3.4493,-3.4498,-3.4492,-3.4504,-3.4535,-3.4539,-3.4503,-3.4503,-3.4502,0,-3.3886,-3.3974,-3.4031,-3.4058,-3.4134,-3.4158,-3.419,-3.424,-3.4271,-3.4318,-3.4338,-3.4388,-3.4414,-3.4451,-3.4485,-3.4479,-3.4543,-3.4542,-3.4559,-3.4558,-3.4571,-3.457,-3.4604,-3.4588,-3.4588,-3.4588,-3.4587,0,-3.3921,-3.3966,-3.4031,-3.4065,-3.4115,-3.4158,-3.4204,-3.4238,-3.4282,-3.432,-3.4349,-3.4383,-3.4428,-3.4467,-3.4493,-3.454,-3.4552,-3.4567,-3.4574,-3.4565,-3.4562,-3.458,-3.4578,-3.4589,-3.4589,-3.4588,-3.4588,0,-3.3928,-3.3974,-3.4037,-3.4105,-3.4122,-3.4155,-3.4211,-3.4243,-3.4276,-3.4324,-3.4338,-3.4388,-3.4436,-3.4474,-3.4535,-3.4553,-3.4601,-3.4609,-3.4585,-3.4588,-3.4603,-3.4601,-3.465,-3.4657,-3.4636,-3.4636,-3.4636,0,-3.3947,-3.3983,-3.4054,-3.4084,-3.4117,-3.4164,-3.4196,-3.4239,-3.4271,-3.4331,-3.4355,-3.4405,-3.4448,-3.4521,-3.456,-3.4607,-3.4615,-3.4629,-3.4622,-3.4611,-3.4613,-3.4611,-3.4613,-3.4629,-3.4629,-3.4629,-3.4629,0,-3.3975,-3.3996,-3.4045,-3.4101,-3.414,-3.4185,-3.423,-3.4251,-3.4301,-3.4335,-3.4386,-3.4419,-3.4483,-3.4531,-3.4581,-3.461,-3.4626,-3.4631,-3.4638,-3.4628,-3.4612,-3.462,-3.4586,-3.463,-3.463,-3.463,-3.463,-3.463,-3.3988,-3.402,-3.4076,-3.4128,-3.4167,-3.4209,-3.4243,-3.428,-3.4325,-3.4382,-3.4403,-3.4454,-3.4501,-3.4571,-3.46,-3.4638,-3.4639,-3.4648,-3.4651,-3.4652,-3.465,-3.4607,-3.4647,-3.4647,-3.4647,-3.4647,-3.4647,0,-3.4016,-3.4054,-3.4102,-3.4166,-3.4206,-3.4222,-3.4272,-3.4304,-3.435,-3.4394,-3.4435,-3.4492,-3.4538,-3.4582,-3.463,-3.4651,-3.466,-3.4662,-3.466,-3.4666,-3.4647,-3.4636,-3.4654,-3.4654,-3.4654,-3.4654,-3.4654,-3.4654,-3.4036,-3.4091,-3.4119,-3.4192,-3.4228,-3.4281,-3.4309,-3.4345,-3.4381,-3.4444,-3.4484,-3.4514,-3.4556,-3.4607,-3.4649,-3.466,-3.4676,-3.4676,-3.4688,-3.4669,-3.4668,-3.4667,-3.4657,-3.4679,-3.4679,-3.4705,-3.4705,-3.4705]}]]